This demonstration page uses our WeatherBlox Daily Observations layout. Learn more.

Left ArrowRight Arrow

44.8408, -93.29828

Hourly Observations for March 15, 2016

Temp ( °F °C ) Dew Point ( °F °C ) Humidity (%) Winds ( mph kmh ) Pressure ( in mb ) Visibility ( mi km ) Precip ( " mm )
12:09 am 00:09 Cloudy 53 11.7 49 9.4 86 86 ESE 13 20 29.65 1004 7 11 0.00 0.00
12:53 am 00:53 Cloudy with Mist and Fog 53 11.7 49 9.4 86 86 ESE 12 19 29.63 1004 6 10 0.00 0.00
1:21 am 01:21 Cloudy with Mist and Fog 53 11.7 49 9.4 86 86 ESE 10 17 29.62 1003 6 10 0.00 0.00
1:53 am 01:53 Cloudy with Mist and Fog 53 11.7 49 9.4 86 86 ESE 13 20 29.62 1003 6 10 0.00 0.00
2:53 am 02:53 Cloudy with Mist and Fog 53 11.7 49 9.4 86 86 ESE 13 20 29.62 1003 6 10 0.00 0.00
3:14 am 03:14 Cloudy with Nearby Thunderstorms 53 11.7 50 10 89 89 ESE 10 17 29.62 1003 6 10 0.00 0.00
3:23 am 03:23 Cloudy with Mist and Fog 53 11.7 50 10 89 89 SE 13 20 29.62 1003 5 8 0.00 0.00
3:53 am 03:53 Cloudy with Mist and Fog 53 11.7 50 10 89 89 ESE 9 15 29.60 1002 5 8 0.00 0.00
4:53 am 04:53 Cloudy with Mist and Fog 53 11.7 50 10 89 89 ESE 10 17 29.59 1002 6 10 0.00 0.00
5:53 am 05:53 Cloudy with Mist and Fog 53 11.7 50 10 89 89 SE 10 17 29.57 1002 6 10 0.00 0.00
6:28 am 06:28 Cloudy 53 11.7 50 10 89 89 SE 10 17 29.59 1002 7 11 0.00 0.00
6:51 am 06:51 Cloudy with Drizzle 54 12 50 10 88 88 SSE 9 15 29.59 1002 2 3 0.00 0.03
6:53 am 06:53 Cloudy with Drizzle 53 11.7 50 10 89 89 SSE 9 15 29.60 1002 2 2 0.00 0.03
7:00 am 07:00 Cloudy with Light Rain 54 12 50 10 88 88 SSE 7 11 29.59 1002 1 2 0.00 0.00
7:12 am 07:12 Cloudy with Light Rain 52 11 52 11 100 100 SSE 7 11 29.59 1002 1 2 0.00 0.00
7:30 am 07:30 Cloudy with Light Rain 52 11 52 11 100 100 SE 7 11 29.59 1002 2 2 0.00 0.00
7:40 am 07:40 Cloudy with Light Rain 52 11.1 50 10 93 93 SE 6 9 29.59 1002 2 3 0.04 1.02
7:53 am 07:53 Cloudy with Mist and Fog 52 11.1 51 10.6 97 97 SE 5 7 29.60 1003 3 4 0.04 1.02
8:36 am 08:36 Cloudy with Light Rain 52 11.1 50 10 93 93 SE 15 24 29.59 1002 4 6 0.00 0.03
8:44 am 08:44 Cloudy with Light Rain 52 11 50 10 94 94 SE 14 22 29.59 1002 3 5 0.00 0.00
8:53 am 08:53 Cloudy with Light Rain 52 11.1 50 10 93 93 ESE 17 28 29.59 1002 2 3 0.02 0.51
9:09 am 09:09 Cloudy with Light Rain 52 11.1 50 10 93 93 E 21 33 29.53 1000 3 5 0.02 0.51
9:40 am 09:40 Cloudy with Mist and Fog 52 11.1 50 10 93 93 SSE 12 19 29.59 1002 6 10 0.02 0.51
9:53 am 09:53 Cloudy with Mist and Fog 52 11.1 50 10 93 93 SE 8 13 29.60 1002 4 6 0.02 0.51
10:53 am 10:53 Cloudy 52 11.1 50 10 93 93 SE 13 20 29.59 1002 7 11 0.00 0.03
11:53 am 11:53 Cloudy 53 11.7 50 10 89 89 S 7 11 29.61 1003 10 16 0.00 0.00
12:04 pm 12:04 Cloudy 54 12 50 10 88 88 S 5 7 29.59 1002 10 16 0.00 0.00
12:15 pm 12:15 Cloudy 54 12.2 50 10 87 87 SE 5 7 29.59 1002 10 16 0.00 0.00
12:32 pm 12:32 Cloudy 54 12 50 10 88 88 SE 6 9 29.59 1002 10 16 0.00 0.00
12:53 pm 12:53 Cloudy 54 12.2 50 10 87 87 SSE 10 17 29.60 1003 10 16 0.00 0.00
1:53 pm 13:53 Cloudy 53 11.7 50 10 89 89 SE 8 13 29.59 1002 10 16 0.00 0.03
2:24 pm 14:24 Cloudy 54 12 52 11 94 94 SSE 7 11 29.56 1001 10 16 0.00 0.00
2:53 pm 14:53 Cloudy 54 12.2 50 10 87 87 SE 7 11 29.57 1001 10 16 0.00 0.00
3:53 pm 15:53 Cloudy with Rain 53 11.7 50 10 89 89 SSE 7 11 29.57 1001 3 4 0.07 1.78
3:58 pm 15:58 Cloudy with Light Rain 53 11.7 50 10 89 89 SSE 7 11 29.56 1001 3 4 0.01 0.25
4:07 pm 16:07 Cloudy with Light Rain 53 11.7 50 10 89 89 SE 10 17 29.56 1001 3 4 0.03 0.76
4:09 pm 16:09 Cloudy with Light Rain 53 11.7 50 10 89 89 SSE 9 15 29.56 1001 3 4 0.03 0.76
4:12 pm 16:12 Cloudy with Light Rain 54 12 50 10 88 88 SE 8 13 29.56 1001 4 6 0.00 0.00
4:27 pm 16:27 Cloudy with Heavy Rain 52 11.1 50 10 93 93 SE 7 11 29.56 1001 3 4 0.10 2.54
4:31 pm 16:31 Cloudy with Heavy Rain 52 11.1 50 10 93 93 SE 7 11 29.56 1001 2 3 0.14 3.56
4:42 pm 16:42 Cloudy with Rain 52 11 50 10 94 94 SSE 5 7 29.56 1001 3 4 0.00 0.00
4:53 pm 16:53 Cloudy with Rain 52 11.1 50 10 93 93 Calm 29.57 1001 3 4 0.22 5.59
5:01 pm 17:01 Cloudy with Rain 51 10.6 49 9.4 92 92 WNW 7 11 29.56 1001 3 4 0.02 0.51
5:04 pm 17:04 Cloudy with Heavy Rain 51 10.6 49 9.4 92 92 WNW 10 17 29.56 1001 2 2 0.04 1.02
5:12 pm 17:12 Cloudy with Heavy Rain 50 10 48 9 94 94 NW 12 19 29.56 1001 2 3 0.00 0.00
5:51 pm 17:51 Cloudy with Rain 50 10 48 9 94 94 NNW 9 15 29.56 1001 2 3 0.24 6.10
5:53 pm 17:53 Cloudy with Rain 50 10 48 8.9 93 93 NNW 12 19 29.58 1002 2 3 0.25 6.35
6:08 pm 18:08 Cloudy with Heavy Rain 48 9 48 9 100 100 NNW 9 15 29.62 1003 1 2 0.00 0.00
6:10 pm 18:10 Cloudy with Heavy Rain 49 9.4 48 8.9 97 97 NNW 9 15 29.62 1003 2 3 0.08 2.03
6:25 pm 18:25 Cloudy with Rain 49 9.4 48 8.9 97 97 NW 9 15 29.62 1003 3 5 0.12 3.05
6:38 pm 18:38 Cloudy with Rain 48 9 48 9 100 100 NW 8 13 29.62 1003 4 6 0.00 0.00
6:42 pm 18:42 Cloudy with Rain 48 9 48 9 100 100 WNW 7 11 29.62 1003 4 6 0.00 0.00
6:53 pm 18:53 Cloudy with Light Rain 49 9.4 47 8.3 93 93 WNW 9 15 29.59 1002 3 5 0.17 4.32
7:05 pm 19:05 Cloudy with Light Rain 49 9.4 47 8.3 93 93 NW 12 19 29.62 1003 3 5 0.01 0.25
7:07 pm 19:07 Cloudy with Light Rain 49 9.4 47 8.3 93 93 NW 10 17 29.62 1003 3 5 0.02 0.51
7:14 pm 19:14 Cloudy with Light Rain 49 9.4 46 7.8 90 90 NW 13 20 29.62 1003 3 5 0.03 0.76
7:38 pm 19:38 Cloudy with Light Rain 48 9 46 8 94 94 NW 8 13 29.62 1003 6 10 0.00 0.00
7:53 pm 19:53 Cloudy with Light Rain 48 8.9 45 7.2 89 89 NW 10 17 29.59 1002 8 13 0.05 1.27
8:05 pm 20:05 Cloudy with Light Rain 48 8.9 45 7.2 89 89 NW 10 17 29.62 1003 10 16 0.00 0.03
8:53 pm 20:53 Cloudy 48 8.9 45 7.2 89 89 NW 13 20 29.58 1002 10 16 0.00 0.03
9:53 pm 21:53 Cloudy 48 8.9 44 6.7 86 86 NNW 15 24 29.56 1001 10 16 0.00 0.00
10:53 pm 22:53 Cloudy with Light Rain 47 8.3 43 6.1 86 86 NNW 14 22 29.55 1001 10 16 0.00 0.03
11:53 pm 23:53 Cloudy with Light Rain 46 7.8 41 5 83 83 NW 17 28 29.53 1000 10 16 0.00 0.03

Powered by AerisWeather